"Timestamp","TZ","WindDir_Mean (deg)","WindSpd_Mean (km/h)","WindSpd_Min (km/h)","WindSpd_Max (km/h)","Temp_Mean (deg)","RH_Mean (%)","MSLP_Mean (hPa)","Rain_Acc (mm)","Rain_Intensity (mm/h)","Hail_Acc (hits/cm2)","Hail_Intensity (hits/cm2hr)","Solar_Mean (W/m2)"
2022/08/15 00:00:00.014,n,241,0.72,0.36,1.08,12.6,61.9,1016.72,0,0,0,0,0.01915
2022/08/15 00:01:00.000,n,37,2.16,1.8,2.88,12.6,63.5,1016.72,0,0,0,0,0.01915
2022/08/15 00:02:00.000,n,316,1.44,0.72,2.52,12.6,64.6,1016.72,0,0,0,0,0.020027
2022/08/15 00:03:00.000,n,282,1.08,0.72,3.6,12.5,65,1016.72,0,0,0,0,0.023537
2022/08/15 00:04:00.003,n,86,1.44,0.36,3.24,12.4,65.6,1016.72,0,0,0,0,0.020027
2022/08/15 00:05:00.000,n,124,0.72,0.36,1.08,12.4,65.800004,1016.72,0,0,0,0,0.01915
2022/08/15 00:06:00.000,n,269,0.72,0.36,1.44,12.3,65.4,1016.72,0,0,0,0,0.01915
2022/08/15 00:07:00.011,n,3,2.16,1.44,2.52,12.2,65.300004,1016.72,0,0,0,0,0.021782
2022/08/15 00:08:00.009,n,300,2.16,1.8,2.88,12.2,66,1016.72,0,0,0,0,0.020905
2022/08/15 00:09:00.005,n,226,1.08,0.72,1.44,12.2,64.800004,1016.72,0,0,0,0,0.027847
2022/08/15 00:10:00.001,n,16,1.08,0.72,1.8,12.1,65,1016.72,0,0,0,0,0.031357
2022/08/15 00:11:00.000,n,184,0.36,0,0.72,12.1,66.1,1016.72,0,0,0,0,0.031357
2022/08/15 00:12:00.000,n,280,1.8,1.44,2.16,12.1,65.199996,1016.72,0,0,0,0,0.031357
2022/08/15 00:13:00.000,n,288,3.24,2.88,3.24,12,64.1,1016.72,0,0,0,0,0.027847
2022/08/15 00:14:00.006,n,273,0.36,0.36,0.72,12.1,66,1016.72,0,0,0,0,0.031357
2022/08/15 00:15:00.003,n,102,0.72,0.36,1.08,12.1,66,1016.72,0,0,0,0,0.029602
2022/08/15 00:16:00.000,n,283,1.44,0.72,1.8,12.1,66.199996,1016.72,0,0,0,0,0.029602
2022/08/15 00:17:00.013,n,64,1.44,0.72,6.12,12,66.6,1016.72,0,0,0,0,0.023499
2022/08/15 00:18:00.011,n,22,0.36,0,0.72,12,67.6,1016.72,0,0,0,0,0.026131
2022/08/15 00:19:00.000,n,216,1.08,0.36,3.6,12,67.7,1016.72,0,0,0,0,0.023499
2022/08/15 00:20:00.000,n,40,2.16,1.8,2.88,12,68.4,1016.72,0,0,0,0,0.025253
2022/08/15 00:21:00.002,n,45,1.44,0.72,2.16,12.1,68.6,1016.72,0,0,0,0,0.026131
2022/08/15 00:22:00.000,n,217,0.72,0.36,1.08,12,68.5,1016.72,0,0,0,0,0.025253
2022/08/15 00:23:00.000,n,14,1.44,0.36,2.88,12,68.7,1016.72,0,0,0,0,0.024376
2022/08/15 00:24:00.009,n,279,0.36,0.36,0.36,12,68.9,1016.72,0,0,0,0,0.027847
2022/08/15 00:25:00.011,n,150,1.08,0.72,1.44,12,69.1,1016.72,0,0,0,0,0.025253
2022/08/15 00:26:00.008,n,205,1.08,0.72,1.08,12,69.1,1016.72,0,0,0,0,0.025253
2022/08/15 00:27:00.002,n,206,1.08,0.72,1.44,11.9,69.5,1016.72,0,0,0,0,0.020905
2022/08/15 00:28:00.000,n,328,0.72,0.36,1.44,11.9,69.6,1016.72,0,0,0,0,0.024376
2022/08/15 00:29:00.000,n,83,1.08,0,1.44,11.9,69.7,1016.72,0,0,0,0,0.020905
2022/08/15 00:30:00.000,n,230,0.72,0.36,0.72,11.9,69.5,1016.72,0,0,0,0,0.01915
2022/08/15 00:31:00.007,n,284,1.08,0.36,1.44,11.8,69.3,1016.72,0,0,0,0,0.022621
2022/08/15 00:32:00.004,n,167,2.52,0.72,5.04,11.8,69.1,1016.72,0,0,0,0,0.021782
2022/08/15 00:33:00.001,n,270,1.08,0.72,1.8,11.7,68.9,1016.72,0,0,0,0,0.022621
2022/08/15 00:34:00.001,n,271,1.08,0.72,3.6,11.7,68.8,1016.72,0,0,0,0,0.018272
2022/08/15 00:35:00.011,n,192,2.52,1.44,6.12,11.7,68.8,1016.72,0,0,0,0,0.022621
2022/08/15 00:36:00.009,n,260,1.08,0.36,1.44,11.7,68.8,1016.62,0,0,0,0,0.021782
2022/08/15 00:37:00.001,n,191,1.8,1.8,2.16,11.6,68.1,1016.62,0,0,0,0,0.027885
2022/08/15 00:38:00.000,n,200,1.44,0.72,6.12,11.6,67.5,1016.62,0,0,0,0,0.034866
2022/08/15 00:39:00.000,n,123,1.08,0.72,1.8,11.6,67,1016.62,0,0,0,0,0.029602
2022/08/15 00:40:00.000,n,159,1.08,0.72,1.44,11.6,66.300004,1016.62,0,0,0,0,0.032234
2022/08/15 00:41:00.007,n,204,0.36,0.36,0.72,11.6,65.800004,1016.62,0,0,0,0,0.031357
2022/08/15 00:42:00.004,n,131,1.8,1.44,2.16,11.6,66.199996,1016.62,0,0,0,0,0.030518
2022/08/15 00:43:00.001,n,202,1.44,1.08,1.44,11.6,66.1,1016.62,0,0,0,0,0.030518
2022/08/15 00:44:00.000,n,190,3.24,1.8,5.76,11.6,65.800004,1016.62,0,0,0,0,0.032234
2022/08/15 00:45:00.013,n,142,1.08,0.36,1.44,11.6,66.1,1016.52,0,0,0,0,0.030518
2022/08/15 00:46:00.000,n,179,1.44,0.72,1.8,11.7,66.1,1016.52,0,0,0,0,0.030518
2022/08/15 00:47:00.000,n,189,1.8,0.36,4.32,11.7,66.199996,1016.52,0,0,0,0,0.028763
2022/08/15 00:48:00.005,n,210,0.72,0.36,1.44,11.7,66.199996,1016.52,0,0,0,0,0.027008
2022/08/15 00:49:00.002,n,116,1.44,0.72,1.8,11.7,65.9,1016.42,0,0,0,0,0.028763
2022/08/15 00:50:00.000,n,180,3.96,2.16,6.84,11.6,64.9,1016.42,0,0,0,0,0.027008
2022/08/15 00:51:00.000,n,184,2.88,0.36,6.84,11.7,64.9,1016.42,0,0,0,0,0.027885
2022/08/15 00:52:00.011,n,134,3.6,2.88,4.68,11.7,64.300004,1016.42,0,0,0,0,0.029602
2022/08/15 00:53:00.010,n,295,2.88,1.08,3.96,11.8,64.1,1016.42,0,0,0,0,0.030518
2022/08/15 00:54:00.007,n,241,6.12,5.4,6.84,11.8,62,1016.42,0,0,0,0,0.028763
2022/08/15 00:55:00.000,n,154,3.96,1.44,6.84,11.8,62.7,1016.42,0,0,0,0,0.028763
2022/08/15 00:56:00.000,n,284,2.52,1.44,2.88,11.9,62.8,1016.42,0,0,0,0,0.025253
2022/08/15 00:57:00.000,n,186,4.68,3.6,8.28,11.9,62.1,1016.42,0,0,0,0,0.026131
2022/08/15 00:58:00.000,n,149,5.4,3.6,6.48,11.9,61,1016.42,0,0,0,0,0.027885
2022/08/15 00:59:00.007,n,171,3.6,1.8,6.48,12,61.4,1016.42,0,0,0,0,0.026131
2022/08/15 01:00:00.004,n,146,2.88,1.08,3.96,12,60.6,1016.32,0,0,0,0,0.024376
2022/08/15 01:01:00.001,n,242,1.08,0.36,4.32,12,60.4,1016.32,0,0,0,0,0.027885
2022/08/15 01:02:00.014,n,257,6.12,2.16,7.2,12.1,60.6,1016.32,0,0,0,0,0.023537
2022/08/15 01:03:00.013,n,343,1.44,1.08,2.52,12.1,61.1,1016.32,0,0,0,0,0.024376
2022/08/15 01:04:00.000,n,191,2.52,1.44,4.32,12.1,61.5,1016.32,0,0,0,0,0.024376
2022/08/15 01:05:00.000,n,320,1.44,0.72,3.96,12.1,61.3,1016.42,0,0,0,0,0.022659
2022/08/15 01:06:00.004,n,188,1.8,0,5.4,12.1,60.9,1016.42,0,0,0,0,0.023537
2022/08/15 01:07:00.001,n,162,2.88,2.16,3.96,12.1,61.2,1016.42,0,0,0,0,0.027885
2022/08/15 01:08:00.000,n,173,2.52,1.44,3.96,12,61.2,1016.42,0,0,0,0,0.024376
2022/08/15 01:09:00.000,n,210,2.52,1.44,4.32,12,61,1016.42,0,0,0,0,0.023537
2022/08/15 01:10:00.009,n,146,1.44,0.72,5.4,12.1,61.4,1016.42,0,0,0,0,0.023537
2022/08/15 01:11:00.006,n,312,2.16,1.44,2.88,12.1,62,1016.42,0,0,0,0,0.021782
2022/08/15 01:12:00.003,n,196,1.44,0,5.04,12,61.5,1016.42,0,0,0,0,0.021782
2022/08/15 01:13:00.001,n,287,1.44,1.08,2.16,12,62.1,1016.42,0,0,0,0,0.020027
2022/08/15 01:14:00.000,n,299,1.08,0.72,1.44,12,63,1016.42,0,0,0,0,0.020905
2022/08/15 01:15:00.000,n,24,1.8,1.08,2.52,12,66,1016.32,0,0,0,0,0.022659
2022/08/15 01:16:00.000,n,38,2.16,1.08,2.52,12,67,1016.32,0,0,0,0,0.022659
2022/08/15 01:17:00.006,n,207,1.08,0.36,1.08,11.9,67.8,1016.32,0,0,0,0,0.020905
2022/08/15 01:18:00.003,n,263,0.72,0.36,1.08,11.8,68.3,1016.32,0,0,0,0,0.021782
2022/08/15 01:19:00.000,n,347,1.8,1.08,3.24,11.7,68.7,1016.32,0,0,0,0,0.020027
2022/08/15 01:20:00.013,n,39,2.16,1.08,3.24,11.6,69.1,1016.32,0,0,0,0,0.018311
2022/08/15 01:21:00.011,n,103,2.16,2.16,2.52,11.4,69.7,1016.32,0,0,0,0,0.018311
2022/08/15 01:22:00.000,n,104,1.8,1.8,2.88,11.2,70.3,1016.32,0,0,0,0,0.021782
2022/08/15 01:23:00.000,n,100,2.52,2.16,2.88,11.1,70.7,1016.32,0,0,0,0,0.020027
2022/08/15 01:24:00.000,n,134,1.44,1.08,1.44,11,71,1016.32,0,0,0,0,0.019188
2022/08/15 01:25:00.000,n,151,2.16,1.8,2.52,10.9,71.3,1016.32,0,0,0,0,0.018311
2022/08/15 01:26:00.000,n,189,1.44,0.72,1.8,10.8,71.7,1016.32,0,0,0,0,0.020027
2022/08/15 01:27:00.008,n,133,2.88,2.52,3.24,10.8,71.8,1016.22,0,0,0,0,0.020027
2022/08/15 01:28:00.006,n,158,4.32,1.44,8.64,10.7,72,1016.22,0,0,0,0,0.020905
2022/08/15 01:29:00.003,n,184,4.32,1.08,5.4,10.7,72.1,1016.22,0,0,0,0,0.018311
2022/08/15 01:30:00.016,n,167,2.16,1.08,3.24,10.7,72,1016.22,0,0,0,0,0.018311
2022/08/15 01:31:00.000,n,178,4.32,3.6,7.92,10.7,71.4,1016.12,0,0,0,0,0.019188
2022/08/15 01:32:00.000,n,188,2.88,2.52,3.24,10.7,71.4,1016.12,0,0,0,0,0.017433
2022/08/15 01:33:00.000,n,200,1.8,0.36,6.84,10.8,71.2,1016.12,0,0,0,0,0.016556
2022/08/15 01:34:00.006,n,145,0.72,0.36,1.44,10.8,70.9,1016.12,0,0,0,0,0.019188
2022/08/15 01:35:00.004,n,222,0.72,0.36,1.44,10.8,71,1016.02,0,0,0,0,0.016556
2022/08/15 01:36:00.000,n,150,2.16,1.08,2.88,10.8,70.5,1016.12,0,0,0,0,0.018311
2022/08/15 01:37:00.000,n,154,5.04,2.88,8.64,10.8,70.2,1016.12,0,0,0,0,0.019188
2022/08/15 01:38:00.011,n,127,1.8,0.72,2.52,10.8,70.1,1016.02,0,0,0,0,0.021782
2022/08/15 01:39:00.005,n,238,0.72,0.36,1.44,10.7,70.4,1016.02,0,0,0,0,0.027885
2022/08/15 01:40:00.000,n,128,1.08,0.36,1.44,10.8,70.9,1016.02,0,0,0,0,0.027046
2022/08/15 01:41:00.000,n,99,0.72,0.36,1.08,10.8,71,1016.02,0,0,0,0,0.025253
2022/08/15 01:42:00.000,n,110,0.72,0.36,0.72,10.7,71.1,1016.02,0,0,0,0,0.022659
2022/08/15 01:43:00.000,n,133,1.44,1.08,1.44,10.7,71.1,1016.02,0,0,0,0,0.025253
2022/08/15 01:44:00.007,n,119,1.44,1.08,1.8,10.6,71.1,1016.02,0,0,0,0,0.026131
2022/08/15 01:45:00.005,n,116,1.08,1.08,1.44,10.6,71.1,1016.02,0,0,0,0,0.027885
2022/08/15 01:46:00.002,n,138,1.44,1.08,1.44,10.5,71.2,1016.02,0,0,0,0,0.020905
2022/08/15 01:47:00.000,n,143,1.44,1.08,1.8,10.5,71.3,1016.02,0,0,0,0,0.020905
2022/08/15 01:48:00.012,n,121,2.16,1.8,2.16,10.4,71.2,1016.02,0,0,0,0,0.020905
2022/08/15 01:49:00.000,n,128,1.44,1.08,2.52,10.4,71.2,1016.02,0,0,0,0,0.019188
2022/08/15 01:50:00.000,n,118,2.16,1.8,2.16,10.4,71,1016.02,0,0,0,0,0.022659
2022/08/15 01:51:00.005,n,162,3.96,1.44,8.64,10.4,70.9,1016.02,0,0,0,0,0.020905
2022/08/15 01:52:00.002,n,148,4.68,4.32,4.68,10.4,70.4,1016.02,0,0,0,0,0.028725
2022/08/15 01:53:00.000,n,146,5.4,4.32,9.36,10.4,70.2,1016.02,0,0,0,0,0.029602
2022/08/15 01:54:00.007,n,143,3.6,3.6,3.96,10.4,70.1,1016.02,0,0,0,0,0.02697
2022/08/15 01:55:00.004,n,143,4.68,3.6,8.28,10.4,70,1016.02,0,0,0,0,0.028725
2022/08/15 01:56:00.001,n,121,1.44,1.08,1.8,10.4,70,1016.02,0,0,0,0,0.031319
2022/08/15 01:57:00.014,n,97,2.16,1.8,2.52,10.4,70.4,1016.02,0,0,0,0,0.027847
2022/08/15 01:58:00.000,n,120,2.52,2.16,2.88,10.4,70.3,1016.02,0,0,0,0,0.024376
2022/08/15 01:59:00.000,n,136,1.8,1.8,2.16,10.4,70.2,1015.92,0,0,0,0,0.027847
2022/08/15 02:00:00.000,n,148,3.24,3.24,3.6,10.4,70.1,1015.92,0,0,0,0,0.02697
2022/08/15 02:01:00.005,n,144,3.24,2.52,3.24,10.4,70,1015.92,0,0,0,0,0.02697
2022/08/15 02:02:00.002,n,161,7.92,3.24,9.72,10.4,69.7,1015.92,0,0,0,0,0.027847
2022/08/15 02:03:00.000,n,154,6.48,3.6,9,10.4,69.3,1015.92,0,0,0,0,0.021744
2022/08/15 02:04:00.012,n,168,5.76,3.6,9.72,10.4,69,1015.92,0,0,0,0,0.025253
2022/08/15 02:05:00.010,n,161,9.72,5.76,11.16,10.5,68.6,1015.92,0,0,0,0,0.02697
2022/08/15 02:06:00.008,n,167,8.28,4.68,11.16,10.5,68.5,1015.92,0,0,0,0,0.020866
2022/08/15 02:07:00.000,n,167,5.76,4.68,9.36,10.5,68.5,1015.92,0,0,0,0,0.022621
2022/08/15 02:08:00.001,n,165,9.72,5.76,11.52,10.5,68.7,1015.92,0,0,0,0,0.018272
2022/08/15 02:09:00.000,n,177,2.88,0.72,8.28,10.6,68.9,1015.82,0,0,0,0,0.02697
2022/08/15 02:10:00.000,n,165,5.76,3.6,6.84,10.6,69.2,1015.82,0,0,0,0,0.02697
2022/08/15 02:11:00.006,n,165,7.92,5.04,10.8,10.6,69.4,1015.82,0,0,0,0,0.028725
2022/08/15 02:12:00.004,n,150,7.92,5.04,10.08,10.6,69.8,1015.82,0,0,0,0,0.028725
2022/08/15 02:13:00.000,n,155,10.08,9.72,11.16,10.6,70.1,1015.82,0,0,0,0,0.025253
2022/08/15 02:14:00.000,n,158,9.36,8.64,10.08,10.6,70.3,1015.82,0,0,0,0,0.028725
2022/08/15 02:15:00.010,n,162,6.48,5.04,9,10.6,70.3,1015.82,0,0,0,0,0.025253
2022/08/15 02:16:00.000,n,159,2.88,2.16,3.24,10.5,70.5,1015.92,0,0,0,0,0.023537
2022/08/15 02:17:00.000,n,161,8.64,4.68,10.08,10.5,70.8,1015.82,0,0,0,0,0.026131
2022/08/15 02:18:00.001,n,165,7.2,3.6,9.72,10.5,70.9,1015.82,0,0,0,0,0.023537
2022/08/15 02:19:00.000,n,167,2.52,1.8,3.24,10.4,70.9,1015.82,0,0,0,0,0.026131
2022/08/15 02:20:00.000,n,167,2.16,1.44,3.6,10.4,71.1,1015.82,0,0,0,0,0.020905
2022/08/15 02:21:00.008,n,197,1.8,1.8,2.52,10.4,71.2,1015.92,0,0,0,0,0.01915
2022/08/15 02:22:00.009,n,184,1.8,1.08,2.88,10.4,71.2,1015.92,0,0,0,0,0.020905
2022/08/15 02:23:00.002,n,159,2.52,0.72,3.6,10.4,71.3,1015.82,0,0,0,0,0.020027
2022/08/15 02:24:00.001,n,129,0.72,0.36,1.08,10.4,71.3,1015.82,0,0,0,0,0.023537
2022/08/15 02:25:00.000,n,182,1.8,0.72,2.16,10.4,71.2,1015.82,0,0,0,0,0.026131
2022/08/15 02:26:00.000,n,171,5.76,4.32,9.72,10.4,71.2,1015.82,0,0,0,0,0.020027
2022/08/15 02:27:00.000,n,173,3.6,3.24,3.96,10.4,70.7,1015.82,0,0,0,0,0.022621
2022/08/15 02:28:00.003,n,180,6.84,5.76,11.52,10.4,70.5,1015.82,0,0,0,0,0.02697
2022/08/15 02:29:00.002,n,181,6.48,5.4,10.8,10.3,70,1015.82,0,0,0,0,0.027847
2022/08/15 02:30:00.000,n,140,1.8,0.72,3.24,10.3,69.9,1015.82,0,0,0,0,0.02697
2022/08/15 02:31:00.000,n,184,4.68,3.6,8.28,10.3,70.1,1015.82,0,0,0,0,0.024376
2022/08/15 02:32:00.011,n,188,2.88,2.88,3.96,10.3,70,1015.82,0,0,0,0,0.023499
2022/08/15 02:33:00.008,n,158,2.16,2.16,2.52,10.3,70.1,1015.82,0,0,0,0,0.023499
2022/08/15 02:34:00.000,n,150,0.72,0.36,1.8,10.3,70.1,1015.82,0,0,0,0,0.024376
2022/08/15 02:35:00.003,n,145,2.88,2.16,3.24,10.3,70.2,1015.82,0,0,0,0,0.027847
2022/08/15 02:36:00.000,n,91,1.08,0.36,1.8,10.3,70.3,1015.82,0,0,0,0,0.024376
2022/08/15 02:37:00.000,n,167,2.16,1.8,3.24,10.3,70.2,1015.82,0,0,0,0,0.022621
2022/08/15 02:38:00.000,n,136,2.16,1.08,2.88,10.3,70,1015.82,0,0,0,0,0.021744
2022/08/15 02:39:00.007,n,146,1.8,1.08,2.16,10.3,70,1015.82,0,0,0,0,0.021744
2022/08/15 02:40:00.004,n,150,4.68,2.88,8.28,10.3,69.7,1015.82,0,0,0,0,0.021744
2022/08/15 02:41:00.000,n,164,2.88,2.88,3.24,10.2,69.2,1015.82,0,0,0,0,0.022621
2022/08/15 02:42:00.014,n,147,3.24,2.88,3.6,10.2,69.3,1015.82,0,0,0,0,0.025253
2022/08/15 02:43:00.000,n,143,3.6,3.6,4.68,10.2,69.3,1015.72,0,0,0,0,0.023499
2022/08/15 02:44:00.000,n,158,6.12,4.68,10.440002,10.2,69.4,1015.72,0,0,0,0,0.020905
2022/08/15 02:45:00.000,n,171,7.92,6.12,11.88,10.2,69.7,1015.72,0,0,0,0,0.025253
2022/08/15 02:46:00.003,n,169,7.56,6.48,11.88,10.1,70,1015.72,0,0,0,0,0.025253
2022/08/15 02:47:00.002,n,159,3.96,3.6,4.32,10.1,70,1015.72,0,0,0,0,0.020905
2022/08/15 02:48:00.000,n,167,2.16,0.36,2.88,10.1,70.3,1015.72,0,0,0,0,0.020027
2022/08/15 02:49:00.011,n,164,10.08,6.84,12.96,10.1,70.6,1015.72,0,0,0,0,0.021744
2022/08/15 02:50:00.008,n,189,4.32,3.6,7.2,10.1,70.7,1015.72,0,0,0,0,0.020027
2022/08/15 02:51:00.005,n,156,2.16,1.8,2.52,10,70.7,1015.72,0,0,0,0,0.021744
2022/08/15 02:52:00.000,n,136,1.8,1.44,2.16,10,70.9,1015.72,0,0,0,0,0.01564
2022/08/15 02:53:00.000,n,128,0.72,0.72,0.72,10,71,1015.72,0,0,0,0,0.018272
2022/08/15 02:54:00.000,n,141,1.44,1.44,1.8,10,71.2,1015.72,0,0,0,0,0.020027
2022/08/15 02:55:00.000,n,87,1.8,1.44,2.16,10,71.4,1015.62,0,0,0,0,0.016556
2022/08/15 02:56:00.007,n,201,0.36,0.36,0.72,10,72.4,1015.62,0,0,0,0,0.017395
2022/08/15 02:57:00.004,n,44,2.88,2.52,3.96,10.1,72,1015.62,0,0,0,0,0.020905
2022/08/15 02:58:00.001,n,48,0.72,0.36,0.72,10.1,72.1,1015.62,0,0,0,0,0.017395
2022/08/15 02:59:00.014,n,106,1.44,0.36,2.52,10.1,72.4,1015.62,0,0,0,0,0.027885
2022/08/15 03:00:00.009,n,43,3.96,2.88,4.68,10.1,72.2,1015.62,0,0,0,0,0.027008
2022/08/15 03:01:00.000,n,40,3.24,1.08,3.96,10.1,72.4,1015.62,0,0,0,0,0.026131
2022/08/15 03:02:00.000,n,67,2.16,1.08,2.88,10.1,72.7,1015.52,0,0,0,0,0.027008
2022/08/15 03:03:00.002,n,0,0.72,0.36,1.8,10.1,72.6,1015.52,0,0,0,0,0.032234
2022/08/15 03:04:00.000,n,43,2.52,2.16,2.88,10.1,72.4,1015.52,0,0,0,0,0.02964
2022/08/15 03:05:00.000,n,327,1.08,0.36,1.44,10.1,72.8,1015.62,0,0,0,0,0.027885
2022/08/15 03:06:00.010,n,21,1.8,0.72,2.52,10.1,72.6,1015.52,0,0,0,0,0.027008
2022/08/15 03:07:00.007,n,62,1.44,1.44,1.8,10.1,72.3,1015.52,0,0,0,0,0.023499
2022/08/15 03:08:00.004,n,281,2.16,1.44,2.16,10.1,72.3,1015.62,0,0,0,0,0.027008
2022/08/15 03:09:00.002,n,297,1.8,1.44,2.16,10,72.3,1015.62,0,0,0,0,0.02964
2022/08/15 03:10:00.000,n,151,0.36,0.36,0.72,10,72.5,1015.62,0,0,0,0,0.028725
2022/08/15 03:11:00.000,n,346,2.52,2.16,3.24,10,72.7,1015.62,0,0,0,0,0.028725
2022/08/15 03:12:00.000,n,257,1.8,1.08,2.16,10,72.2,1015.62,0,0,0,0,0.030479
2022/08/15 03:13:00.007,n,150,1.08,0.72,1.44,10,71.9,1015.52,0,0,0,0,0.027008
2022/08/15 03:14:00.004,n,53,1.08,0,2.16,9.9,71.7,1015.52,0,0,0,0,0.026131
2022/08/15 03:15:00.010,n,217,1.08,0.72,1.08,9.9,71.6,1015.52,0,0,0,0,0.02964
2022/08/15 03:16:00.000,n,132,3.24,2.52,3.96,9.9,71.4,1015.52,0,0,0,0,0.027008
2022/08/15 03:17:00.004,n,318,2.52,1.8,3.6,9.9,70.9,1015.52,0,0,0,0,0.030479
2022/08/15 03:18:00.010,n,273,2.16,1.8,2.16,9.9,71.7,1015.52,0,0,0,0,0.026131
2022/08/15 03:19:00.000,n,263,2.16,1.8,2.52,9.9,71.1,1015.52,0,0,0,0,0.025291
2022/08/15 03:20:00.000,n,263,0.36,0,1.08,9.9,70.8,1015.52,0,0,0,0,0.023499
2022/08/15 03:21:00.000,n,218,2.16,1.8,2.52,9.8,70.8,1015.52,0,0,0,0,0.023499
2022/08/15 03:22:00.000,n,273,3.96,3.6,4.68,9.8,71,1015.52,0,0,0,0,0.027008
2022/08/15 03:23:00.004,n,287,2.52,2.16,2.88,9.8,70.9,1015.42,0,0,0,0,0.025291
2022/08/15 03:24:00.009,n,13,0.36,0,0.72,9.8,71,1015.52,0,0,0,0,0.026131
2022/08/15 03:25:00.000,n,267,2.52,2.16,3.24,9.8,71,1015.52,0,0,0,0,0.024376
2022/08/15 03:26:00.003,n,239,3.6,2.88,3.6,9.8,70.9,1015.42,0,0,0,0,0.025291
2022/08/15 03:27:00.007,n,246,3.24,2.52,3.6,9.8,70.9,1015.42,0,0,0,0,0.023499
2022/08/15 03:28:00.000,n,267,3.96,3.24,4.68,9.8,70.9,1015.42,0,0,0,0,0.022659
2022/08/15 03:29:00.001,n,139,0.72,0,1.8,9.7,71,1015.42,0,0,0,0,0.024376
2022/08/15 03:30:00.000,n,257,2.88,2.52,3.6,9.7,70.9,1015.42,0,0,0,0,0.027008
2022/08/15 03:31:00.000,n,316,1.08,0.36,1.44,9.7,71.3,1015.42,0,0,0,0,0.027008
2022/08/15 03:32:00.000,n,280,1.8,1.08,2.16,9.7,71.1,1015.42,0,0,0,0,0.027885
2022/08/15 03:33:00.005,n,318,0.72,0.36,0.72,9.7,70.9,1015.42,0,0,0,0,0.025291
2022/08/15 03:34:00.010,n,254,1.08,0.36,1.44,9.7,71.2,1015.42,0,0,0,0,0.022659
2022/08/15 03:35:00.004,n,171,0.36,0,0.36,9.6,71.2,1015.32,0,0,0,0,0.022659
2022/08/15 03:36:00.006,n,272,2.16,1.8,2.88,9.6,71.2,1015.32,0,0,0,0,0.02964
2022/08/15 03:37:00.000,n,262,1.08,0.36,1.44,9.6,71.1,1015.32,0,0,0,0,0.030518
2022/08/15 03:38:00.000,n,99,0.72,0.36,1.08,9.6,71.1,1015.32,0,0,0,0,0.03315
2022/08/15 03:39:00.004,n,219,0.72,0.36,0.72,9.6,71.2,1015.32,0,0,0,0,0.031357
2022/08/15 03:40:00.000,n,65,0.72,0.36,1.08,9.6,71.1,1015.32,0,0,0,0,0.031357
2022/08/15 03:41:00.000,n,140,1.44,1.08,1.8,9.6,71,1015.32,0,0,0,0,0.031357
2022/08/15 03:42:00.004,n,139,2.52,2.52,2.88,9.6,70.9,1015.32,0,0,0,0,0.02964
2022/08/15 03:43:00.009,n,179,1.8,1.08,2.16,9.6,70.9,1015.32,0,0,0,0,0.030518
2022/08/15 03:44:00.014,n,175,1.8,1.8,2.16,9.6,71.1,1015.32,0,0,0,0,0.027885
2022/08/15 03:45:00.003,n,198,1.44,0,2.16,9.6,71,1015.32,0,0,0,0,0.032234
2022/08/15 03:46:00.000,n,216,2.52,2.16,2.52,9.6,71.3,1015.32,0,0,0,0,0.02964
2022/08/15 03:47:00.000,n,137,1.44,1.08,1.8,9.6,71.2,1015.32,0,0,0,0,0.031357
2022/08/15 03:48:00.001,n,177,1.8,1.44,2.52,9.6,70.8,1015.32,0,0,0,0,0.02964
2022/08/15 03:49:00.000,n,297,1.8,1.08,2.16,9.6,71.1,1015.32,0,0,0,0,0.031357
2022/08/15 03:50:00.000,n,153,0.72,0.36,1.44,9.6,71.2,1015.32,0,0,0,0,0.02964
2022/08/15 03:51:00.002,n,95,1.08,0.36,1.8,9.5,71.4,1015.32,0,0,0,0,0.027885
2022/08/15 03:52:00.007,n,145,2.88,2.16,3.24,9.6,71.6,1015.32,0,0,0,0,0.027885
2022/08/15 03:53:00.000,n,40,2.16,1.44,3.24,9.6,71.7,1015.32,0,0,0,0,0.025291
2022/08/15 03:54:00.001,n,208,0.36,0,0.72,9.5,71.7,1015.32,0,0,0,0,0.02964
2022/08/15 03:55:00.000,n,83,1.8,1.08,2.52,9.5,71.7,1015.32,0,0,0,0,0.027885
2022/08/15 03:56:00.000,n,129,3.6,2.52,3.96,9.5,71.7,1015.32,0,0,0,0,0.028763
2022/08/15 03:57:00.000,n,148,1.08,0.36,1.44,9.4,71.7,1015.32,0,0,0,0,0.02964
2022/08/15 03:58:00.005,n,144,1.8,1.44,2.16,9.4,71.9,1015.32,0,0,0,0,0.027885
2022/08/15 03:59:00.000,n,132,2.16,1.8,2.52,9.4,71.9,1015.32,0,0,0,0,0.027885
2022/08/15 04:00:00.000,n,130,1.8,1.8,2.16,9.4,71.7,1015.32,0,0,0,0,0.027008
2022/08/15 04:01:00.004,n,152,10.8,7.2,12.24,9.3,71.9,1015.32,0,0,0,0,0.027008
2022/08/15 04:02:00.009,n,161,2.16,1.08,2.16,9.3,72,1015.32,0,0,0,0,0.024376
2022/08/15 04:03:00.014,n,151,4.32,4.32,4.68,9.3,72.1,1015.32,0,0,0,0,0.026169
2022/08/15 04:04:00.000,n,138,3.24,2.88,3.6,9.3,72.2,1015.32,0,0,0,0,0.024376
2022/08/15 04:05:00.000,n,146,2.16,2.16,2.52,9.3,72.3,1015.32,0,0,0,0,0.02182
2022/08/15 04:06:00.000,n,155,2.52,2.52,2.88,9.3,72.5,1015.32,0,0,0,0,0.022659
2022/08/15 04:07:00.002,n,156,5.04,4.32,9.72,9.2,72.6,1015.32,0,0,0,0,0.022659
2022/08/15 04:08:00.007,n,151,5.4,3.6,10.08,9.2,72.7,1015.32,0,0,0,0,0.025291
2022/08/15 04:09:00.000,n,176,2.88,1.08,3.96,9.2,72.8,1015.32,0,0,0,0,0.024376
2022/08/15 04:10:00.001,n,142,2.52,1.44,3.24,9.2,72.8,1015.32,0,0,0,0,0.023537
2022/08/15 04:11:00.006,n,185,2.52,2.16,3.24,9.2,72.8,1015.32,0,0,0,0,0.023537
2022/08/15 04:12:00.013,n,138,3.24,2.52,3.96,9.2,72.9,1015.32,0,0,0,0,0.023537
2022/08/15 04:13:00.002,n,152,2.16,1.8,2.52,9.2,72.8,1015.32,0,0,0,0,0.017433
2022/08/15 04:14:00.000,n,141,1.44,1.08,1.44,9.2,72.7,1015.32,0,0,0,0,0.018311
2022/08/15 04:15:00.000,n,122,1.44,0.72,1.8,9.2,72.8,1015.22,0,0,0,0,0.026169
2022/08/15 04:16:00.001,n,128,1.44,1.44,1.8,9.2,72.9,1015.22,0,0,0,0,0.022659
2022/08/15 04:17:00.007,n,122,1.8,1.8,2.16,9.2,73.1,1015.22,0,0,0,0,0.023537
2022/08/15 04:18:00.000,n,191,0.72,0,1.44,9.2,73,1015.22,0,0,0,0,0.019188
2022/08/15 04:19:00.000,n,11,1.8,1.44,2.16,9.2,73.3,1015.32,0,0,0,0,0.018311
2022/08/15 04:20:00.005,n,118,1.44,1.08,1.8,9.2,73.5,1015.32,0,0,0,0,0.018311
2022/08/15 04:21:00.010,n,134,1.8,1.8,2.16,9.2,73.7,1015.22,0,0,0,0,0.02182
2022/08/15 04:22:00.000,n,73,1.08,0.36,2.16,9.2,74,1015.22,0,0,0,0,0.019188
2022/08/15 04:23:00.000,n,97,2.16,1.44,2.88,9.2,74.3,1015.22,0,0,0,0,0.020027
2022/08/15 04:24:00.000,n,94,2.52,2.16,2.88,9.2,74.3,1015.22,0,0,0,0,0.020943
2022/08/15 04:25:00.000,n,101,2.88,2.52,3.24,9.2,74.8,1015.22,0,0,0,0,0.027046
2022/08/15 04:26:00.000,n,111,2.88,2.88,3.24,9.2,74.6,1015.22,0,0,0,0,0.031395
2022/08/15 04:27:00.005,n,124,2.52,2.16,3.24,9.2,74.5,1015.22,0,0,0,0,0.02964
2022/08/15 04:28:00.010,n,117,1.44,1.44,1.8,9.1,74.6,1015.22,0,0,0,0,0.033112
2022/08/15 04:29:00.000,n,103,1.8,1.44,1.8,9.1,74.6,1015.22,0,0,0,0,0.034027
2022/08/15 04:30:00.003,n,150,1.44,1.08,1.8,9.1,74.7,1015.22,0,0,0,0,0.031395
2022/08/15 04:31:00.000,n,143,1.8,1.44,1.8,9.1,74.7,1015.22,0,0,0,0,0.030518
2022/08/15 04:32:00.000,n,137,1.44,1.44,2.16,9.1,74.8,1015.32,0,0,0,0,0.030518
2022/08/15 04:33:00.002,n,161,2.16,0.72,2.88,9.1,74.9,1015.32,0,0,0,0,0.030518
2022/08/15 04:34:00.000,n,145,3.24,2.88,3.24,9.1,74.8,1015.32,0,0,0,0,0.028763
2022/08/15 04:35:00.000,n,122,2.16,1.8,2.16,9.1,74.7,1015.32,0,0,0,0,0.027885
2022/08/15 04:36:00.001,n,118,3.6,2.88,3.6,9,74.7,1015.32,0,0,0,0,0.027885
2022/08/15 04:37:00.006,n,136,3.6,3.24,3.6,9,74.5,1015.32,0,0,0,0,0.027046
2022/08/15 04:38:00.010,n,146,2.88,2.52,2.88,9,74.4,1015.32,0,0,0,0,0.028763
2022/08/15 04:39:00.016,n,147,3.96,3.6,3.96,9,74.2,1015.32,0,0,0,0,0.028763
2022/08/15 04:40:00.000,n,157,3.6,3.24,3.96,9,74.2,1015.42,0,0,0,0,0.02964
2022/08/15 04:41:00.000,n,155,5.04,3.96,9,9,74.2,1015.42,0,0,0,0,0.027046
2022/08/15 04:42:00.000,n,158,2.88,2.52,3.24,9,73.8,1015.42,0,0,0,0,0.027046
2022/08/15 04:43:00.002,n,144,0.72,0.72,1.8,9,73.8,1015.42,0,0,0,0,0.027046
2022/08/15 04:44:00.007,n,152,2.16,1.44,3.6,9,73.6,1015.42,0,0,0,0,0.027046
2022/08/15 04:45:00.000,n,162,4.68,4.32,5.4,9,73.2,1015.42,0,0,0,0,0.027885
2022/08/15 04:46:00.002,n,170,3.24,2.16,3.6,9.1,73.2,1015.42,0,0,0,0,0.028763
2022/08/15 04:47:00.007,n,144,2.88,2.52,3.96,9.1,73.1,1015.42,0,0,0,0,0.026169
2022/08/15 04:48:00.013,n,167,5.76,4.32,10.440002,9.1,72.9,1015.52,0,0,0,0,0.027046
2022/08/15 04:49:00.001,n,154,4.68,3.6,5.4,9.1,72.9,1015.52,0,0,0,0,0.026169
2022/08/15 04:50:00.000,n,160,5.04,4.32,5.04,9.1,73,1015.52,0,0,0,0,0.025253
2022/08/15 04:51:00.000,n,152,4.32,2.88,5.04,9,73,1015.52,0,0,0,0,0.026169
2022/08/15 04:52:00.000,n,143,3.96,3.6,4.32,9,73.1,1015.52,0,0,0,0,0.02182
2022/08/15 04:53:00.004,n,164,2.52,1.08,3.6,9,73.3,1015.52,0,0,0,0,0.02182
2022/08/15 04:54:00.009,n,166,5.04,5.04,5.4,9,73.4,1015.52,0,0,0,0,0.024414
2022/08/15 04:55:00.000,n,168,4.68,4.32,5.04,9,73.5,1015.52,0,0,0,0,0.025253
2022/08/15 04:56:00.003,n,162,5.76,4.32,10.8,9,73.6,1015.52,0,0,0,0,0.02182
2022/08/15 04:57:00.009,n,129,0.72,0.36,1.08,9,73.7,1015.52,0,0,0,0,0.023537